Time,TemperatureF,DewpointF,PressureIn,WindDirection,WindDirectionDegrees,WindSpeedMPH,WindSpeedGustMPH,Humidity,HourlyPrecipIn,Conditions,Clouds,dailyrainin,SoftwareType,DateUTC
2013-04-30 00:14:00,49.3,48.0,29.99,SSE,154,4.0,-999.0,96,-99.99,,,0.02,weatherlink.com 1.10,2013-04-30 04:14:00,
2013-04-30 00:29:00,49.2,48.0,29.99,SSE,152,1.0,-999.0,96,-99.99,,,0.02,weatherlink.com 1.10,2013-04-30 04:29:00,
2013-04-30 00:44:00,49.2,48.0,30.00,SSE,152,1.0,-999.0,96,-99.99,,,0.02,weatherlink.com 1.10,2013-04-30 04:44:00,
2013-04-30 00:59:00,49.2,48.0,29.99,SSE,151,2.0,-999.0,96,-99.99,,,0.02,weatherlink.com 1.10,2013-04-30 04:59:00,
2013-04-30 01:14:00,49.3,48.0,29.99,ESE,112,5.0,-999.0,96,-99.99,,,0.02,weatherlink.com 1.10,2013-04-30 05:14:00,
2013-04-30 01:29:00,49.4,49.0,29.99,ESE,113,3.0,-999.0,97,-99.99,,,0.02,weatherlink.com 1.10,2013-04-30 05:29:00,
2013-04-30 01:44:00,49.5,49.0,29.99,SE,125,3.0,-999.0,97,-99.99,,,0.02,weatherlink.com 1.10,2013-04-30 05:44:00,
2013-04-30 02:00:00,49.5,49.0,30.00,ESE,110,0.0,-999.0,97,-99.99,,,0.02,weatherlink.com 1.10,2013-04-30 06:00:00,
2013-04-30 02:15:00,49.6,49.0,30.00,SE,126,2.0,-999.0,97,-99.99,,,0.02,weatherlink.com 1.10,2013-04-30 06:15:00,
2013-04-30 02:30:00,49.6,49.0,30.00,NE,52,3.0,-999.0,97,-99.99,,,0.02,weatherlink.com 1.10,2013-04-30 06:30:00,
2013-04-30 02:45:00,49.7,49.0,29.99,ESE,113,5.0,-999.0,97,-99.99,,,0.02,weatherlink.com 1.10,2013-04-30 06:45:00,
2013-04-30 03:00:00,49.9,49.0,29.99,ESE,116,3.0,-999.0,97,-99.99,,,0.02,weatherlink.com 1.10,2013-04-30 07:00:00,
2013-04-30 03:15:00,50.1,49.0,29.98,East,94,2.0,-999.0,97,-99.99,,,0.02,weatherlink.com 1.10,2013-04-30 07:15:00,
2013-04-30 03:30:00,50.2,49.0,29.98,SE,125,4.0,-999.0,97,-99.99,,,0.02,weatherlink.com 1.10,2013-04-30 07:30:00,
2013-04-30 03:45:00,50.2,49.0,29.98,SE,128,6.0,-999.0,97,-99.99,,,0.02,weatherlink.com 1.10,2013-04-30 07:45:00,
2013-04-30 04:00:00,50.0,49.0,29.99,SSE,155,3.0,-999.0,97,-99.99,,,0.02,weatherlink.com 1.10,2013-04-30 08:00:00,
2013-04-30 04:15:00,50.0,49.0,29.99,ESE,111,4.0,-999.0,97,-99.99,,,0.02,weatherlink.com 1.10,2013-04-30 08:15:00,
2013-04-30 04:30:00,50.0,49.0,29.99,ESE,119,3.0,-999.0,97,-99.99,,,0.02,weatherlink.com 1.10,2013-04-30 08:30:00,
2013-04-30 04:45:00,50.0,49.0,30.00,ESE,102,5.0,-999.0,97,-99.99,,,0.02,weatherlink.com 1.10,2013-04-30 08:45:00,
2013-04-30 05:00:00,50.1,49.0,30.00,SSE,153,3.0,-999.0,97,-99.99,,,0.02,weatherlink.com 1.10,2013-04-30 09:00:00,
2013-04-30 05:15:00,50.2,49.0,29.99,SE,133,3.0,-999.0,97,-99.99,,,0.02,weatherlink.com 1.10,2013-04-30 09:15:00,
2013-04-30 05:30:00,50.3,50.0,30.00,East,101,5.0,-999.0,97,-99.99,,,0.02,weatherlink.com 1.10,2013-04-30 09:30:00,
2013-04-30 05:45:00,50.2,49.0,29.99,East,99,0.0,-999.0,97,-99.99,,,0.02,weatherlink.com 1.10,2013-04-30 09:45:00,
2013-04-30 06:00:00,50.1,49.0,29.98,East,96,4.0,-999.0,97,-99.99,,,0.02,weatherlink.com 1.10,2013-04-30 10:00:00,
2013-04-30 06:15:00,50.1,49.0,29.99,SSE,167,4.0,-999.0,97,-99.99,,,0.02,weatherlink.com 1.10,2013-04-30 10:15:00,
2013-04-30 06:30:00,50.1,49.0,29.99,SE,140,4.0,-999.0,97,-99.99,,,0.02,weatherlink.com 1.10,2013-04-30 10:30:00,
2013-04-30 06:45:00,50.3,50.0,29.98,SE,136,3.0,-999.0,98,-99.99,,,0.02,weatherlink.com 1.10,2013-04-30 10:45:00,
2013-04-30 07:00:00,50.3,50.0,29.98,ESE,109,6.0,-999.0,98,-99.99,,,0.02,weatherlink.com 1.10,2013-04-30 11:00:00,
2013-04-30 07:15:00,50.3,50.0,29.98,SE,137,5.0,-999.0,97,-99.99,,,0.02,weatherlink.com 1.10,2013-04-30 11:15:00,
2013-04-30 07:30:00,50.4,50.0,29.99,ESE,114,5.0,-999.0,98,-99.99,,,0.02,weatherlink.com 1.10,2013-04-30 11:30:00,
2013-04-30 07:45:00,50.5,50.0,29.99,SE,143,6.0,-999.0,98,-99.99,,,0.02,weatherlink.com 1.10,2013-04-30 11:45:00,
2013-04-30 08:00:00,50.5,50.0,29.98,SE,138,9.0,-999.0,98,-99.99,,,0.02,weatherlink.com 1.10,2013-04-30 12:00:00,
2013-04-30 08:15:00,50.6,50.0,29.98,South,175,5.0,-999.0,98,-99.99,,,0.02,weatherlink.com 1.10,2013-04-30 12:15:00,
2013-04-30 08:30:00,50.8,50.0,29.99,ENE,75,5.0,-999.0,97,-99.99,,,0.02,weatherlink.com 1.10,2013-04-30 12:30:00,
2013-04-30 08:45:00,50.5,50.0,29.99,ESE,119,7.0,-999.0,98,-99.99,,,0.02,weatherlink.com 1.10,2013-04-30 12:45:00,
2013-04-30 09:00:00,50.6,50.0,30.00,SSE,150,9.0,-999.0,97,-99.99,,,0.02,weatherlink.com 1.10,2013-04-30 13:00:00,
2013-04-30 09:15:00,50.8,50.0,30.00,ESE,115,6.0,-999.0,97,-99.99,,,0.02,weatherlink.com 1.10,2013-04-30 13:15:00,
2013-04-30 09:30:00,51.2,50.0,29.99,SE,138,4.0,-999.0,97,-99.99,,,0.02,weatherlink.com 1.10,2013-04-30 13:30:00,
2013-04-30 09:45:00,52.3,52.0,29.99,ESE,115,12.0,-999.0,97,-99.99,,,0.02,weatherlink.com 1.10,2013-04-30 13:45:00,
2013-04-30 10:00:00,52.3,51.0,30.00,SSE,149,11.0,-999.0,95,-99.99,,,0.02,weatherlink.com 1.10,2013-04-30 14:00:00,
2013-04-30 10:15:00,51.4,50.0,30.01,SSE,148,9.0,-999.0,95,-99.99,,,0.02,weatherlink.com 1.10,2013-04-30 14:15:00,
2013-04-30 10:30:00,50.8,50.0,30.01,SE,142,12.0,-999.0,95,-99.99,,,0.02,weatherlink.com 1.10,2013-04-30 14:30:00,
2013-04-30 10:45:00,51.2,50.0,30.01,SSE,153,9.0,-999.0,95,-99.99,,,0.02,weatherlink.com 1.10,2013-04-30 14:45:00,
2013-04-30 11:00:00,51.8,50.0,30.00,SE,140,15.0,-999.0,94,-99.99,,,0.00,weatherlink.com 1.10,2013-04-30 15:00:00,
2013-04-30 11:15:00,52.4,51.0,29.99,SE,136,10.0,-999.0,93,-99.99,,,0.00,weatherlink.com 1.10,2013-04-30 15:15:00,
2013-04-30 11:30:00,53.2,51.0,29.97,SSE,148,10.0,-999.0,93,-99.99,,,0.00,weatherlink.com 1.10,2013-04-30 15:30:00,
2013-04-30 11:45:00,53.9,52.0,29.93,ESE,111,8.0,-999.0,93,-99.99,,,0.00,weatherlink.com 1.10,2013-04-30 15:45:00,
2013-04-30 12:00:00,54.8,53.0,29.94,ESE,113,7.0,-999.0,92,-99.99,,,0.00,weatherlink.com 1.10,2013-04-30 16:00:00,
2013-04-30 12:15:00,55.9,53.0,29.98,South,184,15.0,-999.0,91,-99.99,,,0.00,weatherlink.com 1.10,2013-04-30 16:15:00,
2013-04-30 12:30:00,54.3,52.0,29.99,SSE,165,12.0,-999.0,91,-99.99,,,0.00,weatherlink.com 1.10,2013-04-30 16:30:00,
2013-04-30 12:46:00,53.2,51.0,29.98,ESE,119,16.0,-999.0,91,-99.99,,,0.00,weatherlink.com 1.10,2013-04-30 16:46:00,
2013-04-30 13:01:00,51.5,49.0,29.96,SE,132,11.0,-999.0,92,-99.99,,,0.00,weatherlink.com 1.10,2013-04-30 17:01:00,
2013-04-30 13:16:00,53.9,52.0,29.95,SSE,152,15.0,-999.0,92,-99.99,,,0.00,weatherlink.com 1.10,2013-04-30 17:16:00,
2013-04-30 13:31:00,55.0,52.0,29.94,SSE,148,14.0,-999.0,90,-99.99,,,0.00,weatherlink.com 1.10,2013-04-30 17:31:00,
2013-04-30 13:46:00,55.1,52.0,29.95,SSE,152,12.0,-999.0,89,-99.99,,,0.00,weatherlink.com 1.10,2013-04-30 17:46:00,
2013-04-30 14:01:00,57.9,54.0,29.95,SE,137,11.0,-999.0,88,-99.99,,,0.00,weatherlink.com 1.10,2013-04-30 18:01:00,
2013-04-30 14:16:00,58.6,55.0,29.95,SE,144,15.0,-999.0,87,-99.99,,,0.00,weatherlink.com 1.10,2013-04-30 18:16:00,
2013-04-30 14:31:00,59.0,55.0,29.96,SSE,164,15.0,-999.0,86,-99.99,,,0.00,weatherlink.com 1.10,2013-04-30 18:31:00,
2013-04-30 14:46:00,58.2,54.0,29.95,SE,138,9.0,-999.0,86,-99.99,,,0.00,weatherlink.com 1.10,2013-04-30 18:46:00,
2013-04-30 15:16:00,57.8,54.0,29.95,SE,138,9.0,-999.0,87,-99.99,,,0.00,weatherlink.com 1.10,2013-04-30 19:16:00,
2013-04-30 15:31:00,58.1,54.0,29.94,SE,127,13.0,-999.0,87,-99.99,,,0.00,weatherlink.com 1.10,2013-04-30 19:31:00,
2013-04-30 15:46:00,59.7,55.0,29.93,SSE,156,17.0,-999.0,85,-99.99,,,0.00,weatherlink.com 1.10,2013-04-30 19:46:00,
2013-04-30 16:01:00,59.0,55.0,29.93,SE,137,17.0,-999.0,87,-99.99,,,0.00,weatherlink.com 1.10,2013-04-30 20:01:00,
2013-04-30 16:16:00,59.8,56.0,29.93,SE,126,13.0,-999.0,88,-99.99,,,0.00,weatherlink.com 1.10,2013-04-30 20:16:00,
2013-04-30 16:31:00,60.8,56.0,29.92,SE,134,16.0,-999.0,85,-99.99,,,0.00,weatherlink.com 1.10,2013-04-30 20:31:00,
2013-04-30 16:46:00,61.1,56.0,29.92,SE,144,14.0,-999.0,84,-99.99,,,0.00,weatherlink.com 1.10,2013-04-30 20:46:00,
2013-04-30 17:01:00,61.7,57.0,29.92,SE,141,16.0,-999.0,84,-99.99,,,0.00,weatherlink.com 1.10,2013-04-30 21:01:00,
2013-04-30 17:16:00,61.8,56.0,29.91,SE,137,17.0,-999.0,82,-99.99,,,0.00,weatherlink.com 1.10,2013-04-30 21:16:00,
2013-04-30 17:31:00,61.9,56.0,29.91,SE,137,11.0,-999.0,81,-99.99,,,0.00,weatherlink.com 1.10,2013-04-30 21:31:00,
2013-04-30 17:46:00,62.2,56.0,29.91,SE,130,16.0,-999.0,79,-99.99,,,0.00,weatherlink.com 1.10,2013-04-30 21:46:00,
2013-04-30 18:01:00,62.5,56.0,29.91,ESE,117,15.0,-999.0,78,-99.99,,,0.00,weatherlink.com 1.10,2013-04-30 22:01:00,
2013-04-30 18:16:00,62.4,56.0,29.92,ESE,121,12.0,-999.0,79,-99.99,,,0.00,weatherlink.com 1.10,2013-04-30 22:16:00,
2013-04-30 18:31:00,61.8,55.0,29.93,SE,126,10.0,-999.0,78,-99.99,,,0.00,weatherlink.com 1.10,2013-04-30 22:31:00,
2013-04-30 18:46:00,61.0,55.0,29.93,SE,145,15.0,-999.0,80,-99.99,,,0.00,weatherlink.com 1.10,2013-04-30 22:46:00,
2013-04-30 19:01:00,59.8,54.0,29.93,SE,138,8.0,-999.0,81,-99.99,,,0.00,weatherlink.com 1.10,2013-04-30 23:01:00,
2013-04-30 19:16:00,59.0,54.0,29.94,SSE,148,14.0,-999.0,83,-99.99,,,0.00,weatherlink.com 1.10,2013-04-30 23:16:00,
2013-04-30 19:31:00,58.7,53.0,29.95,ESE,116,9.0,-999.0,82,-99.99,,,0.00,weatherlink.com 1.10,2013-04-30 23:31:00,
2013-04-30 19:46:00,58.4,53.0,29.96,SE,130,7.0,-999.0,83,-99.99,,,0.00,weatherlink.com 1.10,2013-04-30 23:46:00,
2013-04-30 20:01:00,58.2,53.0,29.97,ESE,111,5.0,-999.0,82,-99.99,,,0.00,weatherlink.com 1.10,2013-05-01 00:01:00,
2013-04-30 20:16:00,57.7,53.0,29.97,ESE,113,4.0,-999.0,83,-99.99,,,0.00,weatherlink.com 1.10,2013-05-01 00:16:00,
2013-04-30 20:31:00,57.5,52.0,29.97,ESE,113,3.0,-999.0,83,-99.99,,,0.00,weatherlink.com 1.10,2013-05-01 00:31:00,
2013-04-30 20:46:00,57.2,52.0,29.98,SE,130,10.0,-999.0,83,-99.99,,,0.00,weatherlink.com 1.10,2013-05-01 00:46:00,
2013-04-30 21:01:00,56.9,52.0,29.98,East,101,4.0,-999.0,83,-99.99,,,0.00,weatherlink.com 1.10,2013-05-01 01:01:00,
2013-04-30 21:16:00,56.1,52.0,29.99,ESE,117,3.0,-999.0,85,-99.99,,,0.00,weatherlink.com 1.10,2013-05-01 01:16:00,
2013-04-30 21:31:00,55.7,51.0,29.99,ESE,110,7.0,-999.0,85,-99.99,,,0.00,weatherlink.com 1.10,2013-05-01 01:31:00,
2013-04-30 21:46:00,55.4,51.0,30.00,East,94,3.0,-999.0,86,-99.99,,,0.00,weatherlink.com 1.10,2013-05-01 01:46:00,
2013-04-30 22:01:00,55.2,51.0,30.01,SE,138,3.0,-999.0,86,-99.99,,,0.00,weatherlink.com 1.10,2013-05-01 02:01:00,
2013-04-30 22:16:00,54.9,51.0,30.01,ESE,122,5.0,-999.0,86,-99.99,,,0.00,weatherlink.com 1.10,2013-05-01 02:16:00,
2013-04-30 22:31:00,54.7,51.0,30.01,ESE,113,5.0,-999.0,87,-99.99,,,0.00,weatherlink.com 1.10,2013-05-01 02:31:00,
2013-04-30 22:46:00,54.6,51.0,30.01,ESE,119,4.0,-999.0,87,-99.99,,,0.00,weatherlink.com 1.10,2013-05-01 02:46:00,
2013-04-30 23:01:00,54.6,51.0,30.02,SSE,153,0.0,-999.0,87,-99.99,,,0.00,weatherlink.com 1.10,2013-05-01 03:01:00,
2013-04-30 23:16:00,54.2,51.0,30.02,ESE,107,3.0,-999.0,87,-99.99,,,0.00,weatherlink.com 1.10,2013-05-01 03:16:00,
2013-04-30 23:31:00,53.9,50.0,30.02,SSE,148,2.0,-999.0,87,-99.99,,,0.00,weatherlink.com 1.10,2013-05-01 03:31:00,
2013-04-30 23:46:00,53.9,51.0,30.02,SE,137,3.0,-999.0,88,-99.99,,,0.00,weatherlink.com 1.10,2013-05-01 03:46:00,